TimeMDT,TemperatureF,Dew PointF,Humidity,Sea Level PressureIn,VisibilityMPH,Wind Direction,Wind SpeedMPH,Gust SpeedMPH,PrecipitationIn,Events,Conditions,WindDirDegrees,DateUTC
12:54 AM,37.9,19.9,48,29.99,10.0,SW,9.2,-,N/A,,Overcast,220,2011-10-27 06:54:00
2:54 AM,37.0,21.9,54,30.00,10.0,SW,10.4,-,N/A,,Scattered Clouds,220,2011-10-27 08:54:00
3:54 AM,37.0,21.9,54,29.99,10.0,West,8.1,-,N/A,,Overcast,260,2011-10-27 09:54:00
4:54 AM,35.1,19.9,54,30.01,10.0,WSW,9.2,-,N/A,,Mostly Cloudy,250,2011-10-27 10:54:00
5:54 AM,35.1,19.0,52,30.05,10.0,WSW,8.1,-,N/A,,Overcast,240,2011-10-27 11:54:00
6:54 AM,36.0,18.0,48,30.06,10.0,West,9.2,-,N/A,,Overcast,260,2011-10-27 12:54:00
7:54 AM,36.0,19.9,52,30.06,10.0,West,8.1,-,N/A,,Overcast,260,2011-10-27 13:54:00
8:54 AM,36.0,21.9,57,30.07,10.0,SW,5.8,-,N/A,,Overcast,230,2011-10-27 14:54:00
9:54 AM,37.0,19.9,50,30.09,10.0,Calm,Calm,-,N/A,,Overcast,0,2011-10-27 15:54:00
10:54 AM,39.0,19.0,45,30.09,10.0,Calm,Calm,-,N/A,,Mostly Cloudy,0,2011-10-27 16:54:00
11:54 AM,42.1,19.0,40,30.09,10.0,NW,20.7,27.6,N/A,,Overcast,310,2011-10-27 17:54:00
12:54 PM,42.1,19.9,41,30.09,10.0,NW,13.8,21.9,N/A,,Overcast,310,2011-10-27 18:54:00
1:54 PM,43.0,19.0,38,30.08,10.0,WNW,15.0,24.2,N/A,,Overcast,300,2011-10-27 19:54:00
2:54 PM,44.1,19.0,37,30.07,10.0,NW,19.6,26.5,N/A,,Partly Cloudy,310,2011-10-27 20:54:00
3:54 PM,45.0,18.0,34,30.07,10.0,WNW,16.1,21.9,N/A,,Partly Cloudy,300,2011-10-27 21:54:00
4:54 PM,44.1,18.0,35,30.09,10.0,WNW,16.1,23.0,N/A,,Mostly Cloudy,300,2011-10-27 22:54:00
5:54 PM,42.1,19.9,41,30.11,10.0,WNW,13.8,-,N/A,,Overcast,300,2011-10-27 23:54:00
7:54 PM,37.9,21.0,51,30.16,10.0,WNW,5.8,-,N/A,,Overcast,290,2011-10-28 01:54:00
8:54 PM,35.1,23.0,61,30.18,10.0,WSW,6.9,-,N/A,,Overcast,250,2011-10-28 02:54:00
9:54 PM,34.0,23.0,64,30.19,10.0,WSW,8.1,-,N/A,,Overcast,240,2011-10-28 03:54:00
10:54 PM,34.0,21.9,61,30.22,10.0,West,8.1,-,N/A,,Overcast,270,2011-10-28 04:54:00
11:54 PM,28.0,21.0,75,30.25,10.0,SE,5.8,-,N/A,,Partly Cloudy,130,2011-10-28 05:54:00